SVA389 OEJN-HECA

Flight info

Callsign SVA389
Flight time N/A
Altitude 40000
Route MIGDA L677 CVO
Aircraft A333/H-SDE3GHIJ2J3J5M1RVWXY/LB2D1

Departure

Time 2026-05-07 17:43
Airport King Abdulaziz International Airport (OEJN)

Arrival

Time N/A
Airport Cairo International Airport (HECA)
Time Latitude Longitude Altitude Speed Heading
2026-05-07 16:55 21.66248 39.17075 60 ft 0 kts 117°
2026-05-07 17:34 21.66252 39.17067 60 ft 2 kts 117°
2026-05-07 17:35 21.66259 39.17053 60 ft 2 kts 117°
2026-05-07 17:35 21.66266 39.17038 60 ft 2 kts 117°
2026-05-07 17:35 21.66273 39.17024 60 ft 2 kts 117°
2026-05-07 17:35 21.66280 39.17010 60 ft 2 kts 128°
2026-05-07 17:36 21.66291 39.16999 61 ft 2 kts 160°
2026-05-07 17:36 21.66306 39.16996 60 ft 2 kts 186°
2026-05-07 17:36 21.66315 39.16998 60 ft 0 kts 202°
2026-05-07 17:36 21.66319 39.17000 60 ft 0 kts 202°
2026-05-07 17:39 21.66304 39.16976 60 ft 8 kts 238°
2026-05-07 17:39 21.66277 39.16914 60 ft 9 kts 248°
2026-05-07 17:40 21.66254 39.16847 60 ft 9 kts 250°
2026-05-07 17:40 21.66234 39.16784 60 ft 7 kts 251°
2026-05-07 17:40 21.66211 39.16715 60 ft 12 kts 250°
2026-05-07 17:40 21.66192 39.16662 60 ft 0 kts 249°
2026-05-07 17:41 21.66183 39.16635 60 ft 9 kts 249°
2026-05-07 17:41 21.66148 39.16530 60 ft 19 kts 258°
2026-05-07 17:41 21.66192 39.16462 60 ft 0 kts 340°
2026-05-07 17:42 21.66194 39.16461 60 ft 2 kts 340°
2026-05-07 17:42 21.66335 39.16405 60 ft 53 kts 339°
2026-05-07 17:42 21.66919 39.16175 60 ft 121 kts 340°
2026-05-07 17:42 21.67895 39.15790 197 ft 162 kts 340°
2026-05-07 17:43 21.68904 39.15377 918 ft 159 kts 339°
2026-05-07 17:43 21.69943 39.14910 1609 ft 165 kts 341°
2026-05-07 17:43 21.70978 39.14507 2195 ft 158 kts 341°
2026-05-07 17:43 21.72032 39.14090 2644 ft 161 kts 341°
2026-05-07 17:44 21.73112 39.13668 2950 ft 173 kts 341°
2026-05-07 17:44 21.74302 39.13203 3237 ft 187 kts 341°
2026-05-07 17:44 21.75584 39.12701 3507 ft 203 kts 340°
2026-05-07 17:44 21.76904 39.12185 3696 ft 227 kts 340°
2026-05-07 17:45 21.78469 39.11573 3998 ft 257 kts 340°
2026-05-07 17:45 21.80269 39.10869 4319 ft 295 kts 340°
2026-05-07 17:45 21.82344 39.10057 4766 ft 328 kts 340°
2026-05-07 17:45 21.84543 39.09196 5266 ft 344 kts 339°
2026-05-07 17:46 21.86841 39.08296 5738 ft 353 kts 339°
2026-05-07 17:46 21.89160 39.07389 6342 ft 358 kts 339°
2026-05-07 17:46 21.91494 39.06331 6983 ft 360 kts 334°
2026-05-07 17:46 21.93768 39.05235 7625 ft 362 kts 335°
2026-05-07 17:47 21.96099 39.04120 8224 ft 365 kts 335°
2026-05-07 17:47 21.98428 39.03008 8841 ft 369 kts 335°
2026-05-07 17:47 22.00792 39.01879 9424 ft 372 kts 335°
2026-05-07 17:47 22.03149 39.00754 10045 ft 374 kts 335°
2026-05-07 17:48 22.05561 38.99600 10578 ft 378 kts 334°
2026-05-07 17:48 22.07985 38.98440 11232 ft 380 kts 334°
2026-05-07 17:48 22.10331 38.97316 11748 ft 384 kts 334°
2026-05-07 17:48 22.12876 38.96098 12327 ft 387 kts 334°
2026-05-07 17:49 22.15366 38.94907 12921 ft 389 kts 333°
2026-05-07 17:49 22.17873 38.93708 13423 ft 393 kts 333°
2026-05-07 17:49 22.20366 38.92518 13975 ft 396 kts 333°
2026-05-07 17:49 22.22905 38.91305 14554 ft 397 kts 333°
2026-05-07 17:50 22.25447 38.90087 15055 ft 400 kts 333°
2026-05-07 17:50 22.28025 38.88853 15575 ft 402 kts 333°
2026-05-07 17:50 22.30560 38.87638 16090 ft 404 kts 333°
2026-05-07 17:50 22.33161 38.86390 16557 ft 407 kts 333°
2026-05-07 17:51 22.35774 38.85135 17034 ft 410 kts 333°
2026-05-07 17:51 22.38374 38.83885 17488 ft 412 kts 333°
2026-05-07 17:51 22.41027 38.82612 17963 ft 414 kts 333°
2026-05-07 17:51 22.43684 38.81335 18353 ft 418 kts 332°
2026-05-07 17:52 22.46340 38.80057 18842 ft 419 kts 332°
2026-05-07 17:52 22.49013 38.78772 19303 ft 421 kts 332°
2026-05-07 17:52 22.51702 38.77478 19704 ft 424 kts 332°
2026-05-07 17:52 22.54422 38.76167 19891 ft 433 kts 332°
2026-05-07 17:53 22.57232 38.74813 19778 ft 439 kts 332°
2026-05-07 17:53 22.59979 38.73492 19848 ft 429 kts 332°
2026-05-07 17:53 22.62707 38.72174 19994 ft 432 kts 332°
2026-05-07 17:53 22.65237 38.70491 20560 ft 421 kts 317°
2026-05-07 17:54 22.67499 38.68454 21090 ft 420 kts 316°
2026-05-07 17:54 22.69731 38.66436 21458 ft 423 kts 315°
2026-05-07 17:54 22.72031 38.64357 21760 ft 427 kts 316°
2026-05-07 17:54 22.74294 38.62310 22207 ft 427 kts 316°
2026-05-07 17:55 22.76573 38.60248 22644 ft 427 kts 315°
2026-05-07 17:55 22.78868 38.58170 22923 ft 431 kts 315°
2026-05-07 17:55 22.81167 38.56088 23270 ft 433 kts 315°
2026-05-07 17:55 22.83485 38.53988 23657 ft 435 kts 315°
2026-05-07 17:56 22.85818 38.51871 24007 ft 436 kts 315°
2026-05-07 17:56 22.88166 38.49742 24289 ft 440 kts 315°
2026-05-07 17:56 22.90535 38.47592 24641 ft 442 kts 315°
2026-05-07 17:56 22.92877 38.45466 24991 ft 443 kts 315°
2026-05-07 17:57 22.95240 38.43320 25293 ft 446 kts 315°
2026-05-07 17:57 22.96851 38.41857 25493 ft 448 kts 315°
2026-05-07 17:57 23.00037 38.38960 25921 ft 450 kts 315°
2026-05-07 17:57 23.02465 38.36750 26210 ft 453 kts 315°
2026-05-07 17:58 23.04876 38.34558 26558 ft 454 kts 314°
2026-05-07 17:58 23.07308 38.32341 26813 ft 457 kts 314°
2026-05-07 17:58 23.09769 38.30101 27153 ft 459 kts 314°
2026-05-07 17:58 23.12215 38.27871 27430 ft 461 kts 314°
2026-05-07 17:59 23.14652 38.25647 27647 ft 465 kts 314°
2026-05-07 17:59 23.17132 38.23386 28022 ft 465 kts 314°
2026-05-07 17:59 23.19633 38.21106 28440 ft 464 kts 314°
2026-05-07 17:59 23.22104 38.18848 28777 ft 465 kts 313°
2026-05-07 18:00 23.24567 38.16597 29233 ft 463 kts 313°
2026-05-07 18:00 23.27036 38.14343 29717 ft 461 kts 313°
2026-05-07 18:00 23.29508 38.12080 30029 ft 463 kts 313°
2026-05-07 18:00 23.31952 38.09846 30423 ft 463 kts 313°
2026-05-07 18:01 23.34415 38.07591 30856 ft 462 kts 312°
2026-05-07 18:01 23.36884 38.05328 31216 ft 462 kts 312°
2026-05-07 18:01 23.39352 38.03068 31648 ft 460 kts 311°
2026-05-07 18:01 23.41813 38.00813 32090 ft 458 kts 311°
2026-05-07 18:02 23.46686 37.96341 32943 ft 455 kts 310°
2026-05-07 18:02 23.49115 37.94112 33348 ft 454 kts 310°
2026-05-07 18:02 23.51525 37.91893 33690 ft 455 kts 310°
2026-05-07 18:03 23.53929 37.89686 34103 ft 453 kts 310°
2026-05-07 18:03 23.56361 37.87448 34552 ft 451 kts 309°
2026-05-07 18:03 23.58735 37.85263 34892 ft 451 kts 309°
2026-05-07 18:03 23.61124 37.83064 35329 ft 449 kts 309°
2026-05-07 18:04 23.63519 37.80857 35700 ft 448 kts 309°
2026-05-07 18:04 23.65885 37.78678 36096 ft 446 kts 309°
2026-05-07 18:04 23.68269 37.76479 36423 ft 446 kts 309°
2026-05-07 18:04 23.70636 37.74297 36816 ft 443 kts 309°
2026-05-07 18:05 23.72989 37.72125 37134 ft 443 kts 309°
2026-05-07 18:05 23.75344 37.69949 37328 ft 444 kts 309°
2026-05-07 18:05 23.77682 37.67790 37651 ft 442 kts 309°
2026-05-07 18:05 23.80044 37.65606 37780 ft 445 kts 309°
2026-05-07 18:06 23.82428 37.63401 37768 ft 447 kts 309°
2026-05-07 18:06 23.87197 37.58987 37771 ft 454 kts 309°
2026-05-07 18:07 23.92048 37.54494 37775 ft 461 kts 310°
2026-05-07 18:07 23.96975 37.49925 37734 ft 467 kts 310°
2026-05-07 18:08 24.01934 37.45323 37709 ft 472 kts 310°
2026-05-07 18:08 24.06956 37.40659 37740 ft 473 kts 310°
2026-05-07 18:09 24.11997 37.35968 37750 ft 474 kts 310°
2026-05-07 18:09 24.17067 37.31249 37742 ft 476 kts 310°
2026-05-07 18:10 24.22124 37.26534 37724 ft 478 kts 310°
2026-05-07 18:10 24.27167 37.21829 37757 ft 478 kts 310°
2026-05-07 18:11 24.32203 37.17125 37774 ft 473 kts 310°
2026-05-07 18:11 24.37209 37.12444 37741 ft 474 kts 311°
2026-05-07 18:12 24.42256 37.07717 37734 ft 477 kts 311°
2026-05-07 18:12 24.47307 37.02985 37774 ft 477 kts 311°
2026-05-07 18:13 24.52345 36.98259 37788 ft 475 kts 311°
2026-05-07 18:13 24.57381 36.93528 37745 ft 476 kts 311°
2026-05-07 18:14 24.62407 36.88800 37730 ft 478 kts 311°
2026-05-07 18:14 24.67435 36.84067 37773 ft 477 kts 311°
2026-05-07 18:15 24.72472 36.79322 37787 ft 476 kts 311°
2026-05-07 18:15 24.77509 36.74569 37755 ft 477 kts 311°
2026-05-07 18:16 24.82529 36.69829 37731 ft 476 kts 311°
2026-05-07 18:16 24.87543 36.65087 37777 ft 476 kts 312°
2026-05-07 18:17 24.92587 36.60313 37795 ft 476 kts 312°
2026-05-07 18:17 24.97591 36.55571 37787 ft 474 kts 313°
2026-05-07 18:18 25.02638 36.50785 37729 ft 477 kts 313°
2026-05-07 18:18 25.07609 36.46063 37741 ft 475 kts 313°
2026-05-07 18:19 25.12630 36.41287 37781 ft 474 kts 313°
2026-05-07 18:19 25.17636 36.36525 37757 ft 475 kts 313°
2026-05-07 18:20 25.22608 36.31787 37761 ft 473 kts 313°
2026-05-07 18:20 25.27609 36.27014 37776 ft 473 kts 313°
2026-05-07 18:21 25.32573 36.22272 37741 ft 474 kts 313°
2026-05-07 18:21 25.37580 36.17485 37750 ft 475 kts 313°
2026-05-07 18:22 25.42530 36.12748 37778 ft 473 kts 313°
2026-05-07 18:22 25.47502 36.07981 37749 ft 472 kts 314°
2026-05-07 18:23 25.52483 36.03205 37728 ft 473 kts 314°
2026-05-07 18:23 25.57445 35.98438 37762 ft 474 kts 314°
2026-05-07 18:24 25.62405 35.93669 37780 ft 471 kts 314°
2026-05-07 18:24 25.67357 35.88902 37750 ft 470 kts 314°
2026-05-07 18:25 25.72283 35.84152 37749 ft 470 kts 314°
2026-05-07 18:25 25.77223 35.79385 37786 ft 469 kts 314°
2026-05-07 18:26 25.82107 35.74668 37776 ft 466 kts 315°
2026-05-07 18:26 25.87022 35.69915 37753 ft 469 kts 315°
2026-05-07 18:27 25.91919 35.65174 37774 ft 467 kts 315°
2026-05-07 18:27 25.96811 35.60433 37783 ft 466 kts 315°
2026-05-07 18:28 26.01694 35.55693 37746 ft 464 kts 315°
2026-05-07 18:28 26.06545 35.50978 37761 ft 463 kts 316°
2026-05-07 18:29 26.11392 35.46267 37787 ft 462 kts 316°
2026-05-07 18:29 26.16230 35.41555 37754 ft 462 kts 316°
2026-05-07 18:30 26.21064 35.36842 37754 ft 462 kts 316°
2026-05-07 18:30 26.25818 35.32204 37792 ft 460 kts 315°